SCP
0 0 0 0 0 0 -0 -0 -0 -0 -0 0 0 0 0 0 0 0 0 0 0 0 0 0 0 0 0 0 0 0 0 0
0 0 0 0 0 -0 -0 -0 -0 -0 -0 0 0 0 0 0 0 0 0 0 0 0 0 0 0 0 0 -0 0 0 0 0
0 0 0 0 0 0 0 -0 -0 -0 -0 0 0 0 0 0 0 0 0 0 0 0 0 0 0 0 0 0 0 0 0 0
0 0 0 0 0 0 0 -0 -0 -0 0 0 0 0 0 0 0 0 0 0 0 0 0 0 0 0 0 0 0 0 0 0
0 0 0 0 0 0 0 -0 -0 -0 -0 0 0 0 0 0 0 0 0 0 0 0 0 0 0 0 0 0 0 0 0 0
0 0 0 0 0 0 -0 -0 -0 -0 0 0 0 0 0 0 0 0 0 0 0 0 0 0 0 0 0 0 0 0 0 0
0 0 0 0 0 0 0 0 -0 -0 -0 0 0 0 0 0 0 0 0 0 0 0 0 0 0 0 0 0 0 0 0 0
0 0 0 0 0 0 0 0 0 0 -0 -0 0 0 0 0 0 0 0 0 0 0 0 0 0 0 0 0 0 0 0 0
0 0 0 0 0 0 0 0 0 0 0 0 0 0 0 0 0 0 0 0 0 0 0 0 0 0 0 0 0 0 0 0
0 0 0 0 0 0 0 0 0 0 0 0 0 0 0 0 0 0 0 0 0 0 0 0 0 0 0 0 0 0 0 0
0 0 0 0 0 0 0 0 0 0 0 0 0 0 0 0 0 0 0 0 0 0 0 -0 0 0 0 0 0 0 0 0
0 0 0 0 0 0 0 0 0 0 0 0 0 0 0 0 0 0 0 0 0 0 0 0 0 0 0 0 0 0 0 0
0 0 0 0 0 0 0 0 0 0 0 0 0 0 0 0 0 0 0 0 0 0 -0 0 0 0 -0 -0 -0 -0 0 0
0 0 0 0 0 0 0 0 0 0 0 0 0 0 0 0 0 0 0 0 0 0 0 0 0 0 -0 -0 -0 -0 0 0
0 0 0 0 0 0 0 0 0 0 0 0 0 0 0 0 0 0 0 0 0 -0 0 0 -0 -0 -0 0 0 0 0 0
0 0 0 0 0 0 0 0 0 0 0 0 0 0 0 0 0 0 0 0 -0 -0 -0 -0 0 0 -0 0 0 0 0 0
0 0 0 0 0 0 0 0 0 0 0 0 0 0 0 0 0 0 -0 -0 -0 -0 -0 -0 -0 -0 0 0 0 0 0 0
0 0 0 0 0 0 0 0 0 0 0 0 0 0 0 0 0 0 0 -0 -0 -0 -0 0 0 0 0 0 0 0 0 0
0 0 0 0 0 0 0 0 0 0 0 0 0 0 0 0 0 0 0 0 0 0 0 0 0 0 0 0 0 0 0 0
0 0 0 0 -0 -0 -0 -0 0 0 0 0 0 0 0 0 0 0 0 0 0 0 0 0 0 0 0 0 0 0 0 0
Wind_Speed_500mb
67 65 60 55 52 44 44 41 35 28 27 26 22 19 20 31 31 32 31 29 28 30 37 33 48 65 59 51 79 77 86 81
68 63 60 54 48 43 40 37 36 28 23 19 21 24 30 31 28 26 24 29 27 27 31 33 40 52 59 53 75 85 85 88
63 62 61 57 50 44 40 38 34 28 20 17 19 25 26 25 26 26 22 22 22 23 30 30 41 44 46 51 73 68 65 73
58 62 60 60 54 48 42 38 34 27 20 16 14 14 15 15 15 17 22 21 19 26 28 27 36 37 38 39 57 74 77 57
54 59 57 58 55 49 42 35 32 28 22 16 10 9 10 11 12 12 12 20 18 17 28 26 29 35 32 38 51 60 61 51
47 52 55 58 58 50 42 36 33 28 23 18 9 6 9 12 15 12 8 11 14 15 22 25 33 35 36 39 51 54 56 46
39 43 48 51 55 52 41 35 32 28 26 19 11 7 5 5 6 7 10 10 10 13 14 11 24 37 48 41 58 50 47 50
35 41 41 44 48 51 43 34 31 30 27 22 16 9 8 9 13 12 10 16 19 17 12 19 24 43 57 54 69 66 63 56
31 32 34 35 41 46 46 43 38 36 33 30 27 24 21 20 21 25 28 33 37 40 40 43 48 52 60 63 68 70 66 65
32 31 28 26 31 41 47 49 48 45 43 42 39 36 34 37 38 40 45 50 53 58 62 60 59 53 49 57 66 71 70 63
27 29 26 24 22 27 37 48 51 50 47 43 46 50 53 54 55 56 58 63 63 69 65 62 57 43 43 48 55 61 61 53
24 27 27 23 20 21 25 35 40 41 43 44 49 51 51 53 56 59 61 61 59 59 57 53 47 40 35 34 37 40 42 41
21 26 25 23 19 19 19 25 29 28 34 38 39 40 41 44 42 43 45 49 50 47 46 44 44 37 29 27 30 27 25 29
16 21 21 20 19 17 17 18 21 20 21 24 26 27 29 31 35 35 35 38 39 37 36 34 30 26 20 18 19 18 17 16
12 13 16 16 17 17 18 17 15 16 17 18 20 22 23 25 28 30 31 31 32 31 30 28 25 23 20 18 18 17 15 14
8 10 11 13 15 17 18 19 16 14 17 23 24 24 25 31 34 33 33 28 27 30 26 22 20 19 17 13 12 12 10 10
8 4 5 10 14 16 17 19 18 16 17 20 22 24 25 27 28 31 32 32 32 29 25 25 23 20 18 16 12 10 11 10
13 9 3 2 7 11 13 14 15 14 17 19 21 21 21 21 22 24 25 25 25 25 24 22 21 20 18 15 12 6 4 5
18 15 10 5 2 6 6 7 9 11 14 15 16 18 21 22 23 24 25 26 27 28 29 27 25 23 20 17 14 10 6 7
24 22 18 13 7 3 1 2 5 8 10 11 13 15 16 16 15 15 13 12 11 12 12 11 12 14 14 14 12 11 11 10
Wind_Direction_500mb
350 347 344 335 329 325 320 314 313 311 315 319 315 273 242 223 220 217 226 229 237 249 253 265 248 235 237 259 228 222 211 215
349 349 349 345 341 332 326 321 314 306 307 304 295 279 270 253 247 237 244 249 246 252 261 274 268 249 243 264 221 214 210 210
348 350 352 352 350 345 338 332 327 316 315 304 281 268 269 267 255 246 245 244 254 251 255 268 265 249 242 269 208 208 211 216
349 352 355 358 357 354 351 345 340 333 324 307 294 279 266 267 264 257 243 240 234 247 254 265 256 241 238 256 228 211 211 204
349 353 357 1 2 0 358 356 352 348 334 322 296 270 261 253 255 258 266 236 239 253 258 264 263 232 228 246 199 191 192 191
351 349 1 3 6 7 5 4 2 3 356 345 332 281 234 225 232 230 245 240 231 262 252 250 265 222 223 237 190 180 177 175
353 349 4 6 12 15 11 16 17 18 19 10 354 338 254 215 232 186 188 233 213 222 236 237 252 188 214 214 162 162 161 152
357 357 3 14 16 24 23 28 35 42 48 48 44 51 90 116 127 133 159 161 151 150 161 157 164 163 161 156 136 141 130 133
4 13 6 15 26 32 33 42 49 58 64 72 79 89 101 116 124 131 138 136 126 125 128 126 125 137 133 129 126 121 121 120
6 14 13 16 22 36 43 48 54 61 72 80 89 94 100 105 111 116 122 117 111 109 110 104 94 98 108 120 119 114 112 113
7 15 20 23 30 39 45 54 56 61 70 82 89 98 102 106 108 108 107 104 103 99 96 97 99 112 123 117 110 112 112 112
7 18 28 32 32 44 52 59 64 67 71 77 86 90 92 96 98 98 98 97 97 102 101 101 106 102 97 98 98 95 103 104
6 15 25 33 40 47 55 67 73 73 79 79 77 84 93 93 94 95 98 101 100 99 101 102 101 101 98 86 80 87 94 95
360 9 21 32 41 52 61 68 75 81 78 79 83 82 83 89 97 99 98 96 97 96 93 88 84 88 86 86 80 81 80 92
339 6 14 30 45 52 64 68 64 63 66 75 80 84 88 86 87 87 83 84 88 87 84 81 82 82 82 75 72 72 60 47
313 343 14 36 46 53 59 64 74 81 86 96 93 88 89 90 86 85 85 84 85 84 78 76 77 73 67 63 56 48 37 41
246 269 2 29 42 46 52 59 62 60 64 68 74 85 84 79 79 73 68 65 65 68 64 60 60 58 57 51 43 20 2 4
225 226 219 61 68 61 56 57 55 52 57 53 52 57 67 75 73 69 69 67 64 59 58 54 52 49 49 51 58 36 15 308
220 220 218 232 155 91 75 81 86 75 66 60 53 49 47 45 46 47 44 39 35 32 29 26 26 25 25 24 25 34 21 356
221 221 219 223 225 199 147 67 53 48 44 39 36 32 29 29 33 35 38 39 38 31 19 12 8 4 0 359 354 347 343 334
Wind_Speed_850mb
67 65 60 55 52 44 44 41 35 28 27 26 22 19 20 31 31 32 31 29 28 30 37 33 48 65 59 51 79 77 86 81
68 63 60 54 48 43 40 37 36 28 23 19 21 24 30 31 28 26 24 29 27 27 31 33 40 52 59 53 75 85 85 88
63 62 61 57 50 44 40 38 34 28 20 17 19 25 26 25 26 26 22 22 22 23 30 30 41 44 46 51 73 68 65 73
58 62 60 60 54 48 42 38 34 27 20 16 14 14 15 15 15 17 22 21 19 26 28 27 36 37 38 39 57 74 77 57
54 59 57 58 55 49 42 35 32 28 22 16 10 9 10 11 12 12 12 20 18 17 28 26 29 35 32 38 51 60 61 51
47 52 55 58 58 50 42 36 33 28 23 18 9 6 9 12 15 12 8 11 14 15 22 25 33 35 36 39 51 54 56 46
39 43 48 51 55 52 41 35 32 28 26 19 11 7 5 5 6 7 10 10 10 13 14 11 24 37 48 41 58 50 47 50
35 41 41 44 48 51 43 34 31 30 27 22 16 9 8 9 13 12 10 16 19 17 12 19 24 43 57 54 69 66 63 56
31 32 34 35 41 46 46 43 38 36 33 30 27 24 21 20 21 25 28 33 37 40 40 43 48 52 60 63 68 70 66 65
32 31 28 26 31 41 47 49 48 45 43 42 39 36 34 37 38 40 45 50 53 58 62 60 59 53 49 57 66 71 70 63
27 29 26 24 22 27 37 48 51 50 47 43 46 50 53 54 55 56 58 63 63 69 65 62 57 43 43 48 55 61 61 53
24 27 27 23 20 21 25 35 40 41 43 44 49 51 51 53 56 59 61 61 59 59 57 53 47 40 35 34 37 40 42 41
21 26 25 23 19 19 19 25 29 28 34 38 39 40 41 44 42 43 45 49 50 47 46 44 44 37 29 27 30 27 25 29
16 21 21 20 19 17 17 18 21 20 21 24 26 27 29 31 35 35 35 38 39 37 36 34 30 26 20 18 19 18 17 16
12 13 16 16 17 17 18 17 15 16 17 18 20 22 23 25 28 30 31 31 32 31 30 28 25 23 20 18 18 17 15 14
8 10 11 13 15 17 18 19 16 14 17 23 24 24 25 31 34 33 33 28 27 30 26 22 20 19 17 13 12 12 10 10
8 4 5 10 14 16 17 19 18 16 17 20 22 24 25 27 28 31 32 32 32 29 25 25 23 20 18 16 12 10 11 10
13 9 3 2 7 11 13 14 15 14 17 19 21 21 21 21 22 24 25 25 25 25 24 22 21 20 18 15 12 6 4 5
18 15 10 5 2 6 6 7 9 11 14 15 16 18 21 22 23 24 25 26 27 28 29 27 25 23 20 17 14 10 6 7
24 22 18 13 7 3 1 2 5 8 10 11 13 15 16 16 15 15 13 12 11 12 12 11 12 14 14 14 12 11 11 10
Wind_Direction_850mb
350 347 344 335 329 325 320 314 313 311 315 319 315 273 242 223 220 217 226 229 237 249 253 265 248 235 237 259 228 222 211 215
349 349 349 345 341 332 326 321 314 306 307 304 295 279 270 253 247 237 244 249 246 252 261 274 268 249 243 264 221 214 210 210
348 350 352 352 350 345 338 332 327 316 315 304 281 268 269 267 255 246 245 244 254 251 255 268 265 249 242 269 208 208 211 216
349 352 355 358 357 354 351 345 340 333 324 307 294 279 266 267 264 257 243 240 234 247 254 265 256 241 238 256 228 211 211 204
349 353 357 1 2 0 358 356 352 348 334 322 296 270 261 253 255 258 266 236 239 253 258 264 263 232 228 246 199 191 192 191
351 349 1 3 6 7 5 4 2 3 356 345 332 281 234 225 232 230 245 240 231 262 252 250 265 222 223 237 190 180 177 175
353 349 4 6 12 15 11 16 17 18 19 10 354 338 254 215 232 186 188 233 213 222 236 237 252 188 214 214 162 162 161 152
357 357 3 14 16 24 23 28 35 42 48 48 44 51 90 116 127 133 159 161 151 150 161 157 164 163 161 156 136 141 130 133
4 13 6 15 26 32 33 42 49 58 64 72 79 89 101 116 124 131 138 136 126 125 128 126 125 137 133 129 126 121 121 120
6 14 13 16 22 36 43 48 54 61 72 80 89 94 100 105 111 116 122 117 111 109 110 104 94 98 108 120 119 114 112 113
7 15 20 23 30 39 45 54 56 61 70 82 89 98 102 106 108 108 107 104 103 99 96 97 99 112 123 117 110 112 112 112
7 18 28 32 32 44 52 59 64 67 71 77 86 90 92 96 98 98 98 97 97 102 101 101 106 102 97 98 98 95 103 104
6 15 25 33 40 47 55 67 73 73 79 79 77 84 93 93 94 95 98 101 100 99 101 102 101 101 98 86 80 87 94 95
360 9 21 32 41 52 61 68 75 81 78 79 83 82 83 89 97 99 98 96 97 96 93 88 84 88 86 86 80 81 80 92
339 6 14 30 45 52 64 68 64 63 66 75 80 84 88 86 87 87 83 84 88 87 84 81 82 82 82 75 72 72 60 47
313 343 14 36 46 53 59 64 74 81 86 96 93 88 89 90 86 85 85 84 85 84 78 76 77 73 67 63 56 48 37 41
246 269 2 29 42 46 52 59 62 60 64 68 74 85 84 79 79 73 68 65 65 68 64 60 60 58 57 51 43 20 2 4
225 226 219 61 68 61 56 57 55 52 57 53 52 57 67 75 73 69 69 67 64 59 58 54 52 49 49 51 58 36 15 308
220 220 218 232 155 91 75 81 86 75 66 60 53 49 47 45 46 47 44 39 35 32 29 26 26 25 25 24 25 34 21 356
221 221 219 223 225 199 147 67 53 48 44 39 36 32 29 29 33 35 38 39 38 31 19 12 8 4 0 359 354 347 343 334